{"data":{"norad_id":57066,"epoch":"2026-09-20T05:11:54.754080Z","epoch_age_seconds":145441,"freshness":"FRESH","line1":"1 57066U 23088U   26263.21660595  .00001972  00000+0  81189-4 0  9997","line2":"2 57066  43.0016  91.9985 0001662 238.6774 121.3915 15.27565696179105","mean_motion":15.27565696,"eccentricity":0.0001662,"inclination_deg":43.0016,"raan_deg":91.9985,"arg_perigee_deg":238.6774,"mean_anomaly_deg":121.3915,"bstar":8.1189e-5,"rev_number":17910,"period_min":94.267631419762,"perigee_km":481.95159144793,"apogee_km":484.2322639435,"semimajor_km":6861.2289276957,"source":"CELESTRAK","updated_at":"2026-09-21T09:00:33.551738Z"}}